Regional Weather Roundup
Issued by NWS

Home | Current Version | Previous Version | Graphics & Text | Print | Product List | Glossary Off
Versions: 1 2 3 4 5 6 7 8 9 10 11 12 13 14 15 16 17 18 19 20 21 22 23 24 25 26 27 28 29 30 31 32 33 34 35 36 37 38 39 40 41 42 43 44 45 46 47 48 49 50

000
ASUS43 KMKX 081410
RWRWI

WISCONSIN REGIONAL WEATHER ROUNDUP
NATIONAL WEATHER SERVICE MILWAUKEE/SULLIVAN WI
800 AM CST MON FEB 08 2016

NOTE: "FAIR" INDICATES FEW OR NO CLOUDS BELOW 12,000 FEET WITH NO
SIGNIFICANT WEATHER AND/OR OBSTRUCTIONS TO VISIBILITY.

WIZ001-002-006>008-014>016-023>028-081500-
NORTHWEST WISCONSIN

CITY           SKY/WX    TMP DP  RH WIND       PRES   REMARKS
SUPERIOR ARPT  FLURRIES  11   4  73 NW14G22   29.87R WCI  -4
ASHLAND        LGT SNOW  18  13  80 NW8       29.79R WCI   8
HAYWARD        LGT SNOW  12   7  80 N9        29.78R WCI   0
SIREN          FLURRIES  11   4  74 NW12G18   29.85R WCI  -3
CUMBERLAND     LGT SNOW  12   7  79 NW16      29.78R WCI  -4
RICE LAKE      FLURRIES  13   7  79 NW10      29.81R WCI   0
CHETEK         LGT SNOW  12   8  82 MISG      29.78R
LADYSMITH      CLOUDY    15  10  80 NW17      29.74R WCI  -1
EAU CLAIRE     LGT SNOW  14   7  73 NW13G20   29.78R WCI   0
MENOMONIE      LGT SNOW  14   8  75 NW15G23   29.80R WCI  -1
NEW RICHMOND   CLOUDY    11   4  74 NW17G23   29.84R WCI  -6
OSCEOLA        CLOUDY    12   5  73 NW12G18   29.89R WCI  -2
$$

WIZ003>005-009-010-017-018-081500-
NORTH CENTRAL WISCONSIN

CITY           SKY/WX    TMP DP  RH WIND       PRES   REMARKS
MANITOWISH WTR CLOUDY    19  17  91 N8        29.65R WCI   9
ARBOR VITAE    CLOUDY    22  17  83 N13       29.64R WCI  10
WOODRUFF       CLOUDY    22  17  83 N13       29.64R WCI  10
RHINELANDER    CLOUDY    21  16  81 VRB6      29.62R WCI  13
EAGLE RIVER    LGT SNOW  20  15  83 N8        29.62R VSB 1   WCI  10
LAND O LAKES   CLOUDY    19  16  87 N12       29.64R WCI   7
PHILLIPS       CLOUDY    19  15  86 N8        29.67R WCI   9
TOMAHAWK       LGT SNOW  22  18  86 N8        29.64R WCI  12
MEDFORD        CLOUDY    19  16  88 NW13      29.64R WCI   5
MERRILL        CLOUDY    25  19  80 N10G18    29.63R WCI  14
$$

WIZ029-030-035-036-043>047-081500-
CENTRAL WISCONSIN

CITY           SKY/WX    TMP DP  RH WIND       PRES   REMARKS
WAUSAU         CLOUDY    25  19  78 NW8       29.60S WCI  16
MOSINEE        CLOUDY    21  19  93 NW10      29.62S WCI  10
MARSHFIELD     CLOUDY    19  12  74 NW17      29.64R WCI   4
STEVENS POINT  CLOUDY    19  15  82 W6        29.64R WCI  11
WAUPACA        CLOUDY    26  19  75 W8        29.64R WCI  18
WAUTOMA        CLOUDY    22  16  78 NW13      29.66S WCI  10
WISC RAPIDS    CLOUDY    20  12  71 NW14      29.68R WCI   7
CAMP DOUGLAS   FLURRIES  18  18 100 NW16G23   29.69R WCI   3
$$

WIZ011>013-019>022-031-037>040-048>050-081500-
NORTHEAST WISCONSIN

CITY           SKY/WX    TMP DP  RH WIND       PRES   REMARKS
ANTIGO         CLOUDY    24  22  91 NW8       29.59R WCI  16
SHAWANO        CLOUDY    32  24  73 W6        29.61R WCI  26
OCONTO         CLOUDY    32  32 100 W6        29.59R WCI  26
STURGEON BAY   CLOUDY    32  27  80 W3        29.60R
GREEN BAY      FLURRIES  30  27  88 W10       29.59R WCI  21
MANITOWOC      FLURRIES  32  28  85 NW8       29.60R WCI  25
APPLETON       CLOUDY    27  21  80 W12       29.59R WCI  16
CLINTONVILLE   CLOUDY    30  21  69 NW8       29.61R WCI  23
OSHKOSH        CLOUDY    26  19  74 W14       29.61R WCI  14
$$

WIZ032>034-041-042-053>061-081500-
SOUTHWEST WISCONSIN

CITY           SKY/WX    TMP DP  RH WIND       PRES   REMARKS
LA CROSSE      FLURRIES  18  10  71 NW17      29.77R WCI   3
SPARTA         FLURRIES  18  13  82 NW10      29.75R WCI   6
VIROQUA        CLOUDY    16  12  86 NW17      29.69R WCI   0
BOSCOBEL       LGT SNOW  19  13  77 VRB5      29.75R WCI  12
PRAIRIE DU CHI MIX PCPN  18  10  70 NW12G25   29.76S WCI   5
PLATTEVILLE    CLOUDY    18  15  89 NW15      29.70R WCI   3
$$

WIZ056-057-062-063-064-067-068-081500-
SOUTH CENTRAL WISCONSIN

CITY           SKY/WX    TMP DP  RH WIND       PRES   REMARKS
REEDSBURG      LGT SNOW  18  14  82 NW9G17    29.69R WCI   7
BARABOO/DELLS  FLURRIES  19  14  80 NW8       29.67S WCI   9
LONE ROCK      LGT SNOW  20  14  77 NW10      29.71S WCI   9
MINERAL POINT  LGT SNOW  21  18  86 NW10G20   29.67S WCI  10
MADISON        FLURRIES  22  17  81 NW8       29.65R WCI  12
MIDDLETON      CLOUDY    23  18  83 NW9       29.67R WCI  13
WATERTOWN      CLOUDY    26  24  92 NW13      29.63R WCI  15
MONROE         LGT SNOW  23  19  86 NW9G16    29.65R WCI  13
JANESVILLE     CLOUDY    27  21  80 W13       29.64R WCI  16
$$

WIZ051-052-058>065-066-070>072-081500-
SOUTHEAST WISCONSIN

CITY           SKY/WX    TMP DP  RH WIND       PRES   REMARKS
MILWAUKEE      LGT SNOW  30  28  92 W7        29.61R VSB 3/4 WCI  23
WAUKESHA       CLOUDY    28  27  93 W10       29.61R WCI  19
MILWAUKEE/TIMM CLOUDY    28  25  86 NW13      29.61R WCI  18
RACINE         CLOUDY    31  26  82 W8        29.62R WCI  23
BURLINGTON     CLOUDY    27  26  94 W9        29.62R WCI  18
KENOSHA        CLOUDY    29  26  89 W10       29.61S FOG     WCI  20
FOND DU LAC    CLOUDY    27  20  75 NW12      29.62R WCI  17
SHEBOYGAN      CLOUDY    29  23  78 NW12      29.59S WCI  19
WEST BEND      CLOUDY    28  23  80 NW8       29.60R WCI  20
JUNEAU         CLOUDY    25  20  82 NW8G17    29.64R WCI  16
$$

LSZ147-162-081500-
LAKE SUPERIOR

STATION/POSITION TIME  TEMP    WIND        PRES    WAVE
                       AIR SEA DIR/SP/G            HT/PER
                 (UTC) (F)     (DEG/KT/KT) (MB)    (FT/S)
DEVILS ISLAND    1400   15      10/ 22/ 25 1010.2R
PORT WING        1340   18     310/ 16/ 19 1010.2R
SAXON HARBOR     1340   21                 1007.8R
$$

LMZ867-665-643>646-081500-
LAKE MICHIGAN

STATION/POSITION TIME  TEMP    WIND        PRES    WAVE
                       AIR SEA DIR/SP/G            HT/PER
                 (UTC) (F)     (DEG/KT/KT) (MB)    (FT/S)
CHAMBERS ISLAND  1300   32     260/  2/  4 1002.0R
NORTHPORT PIER   1300   33      CALM  /  3 1001.7S
ALGOMA LAKESHORE 1341          320/  5/  7   N/A
KEWAUNEE LAKESHO 1300   33     290/  2/  7 1000.9R
SHEBOYGAN LAKESH 1400   31     290/ 11/ 14 1002.9R
PORT WASHINGTON  1300   32     300/  7/ 10 1003.0R
MILWAUKEE LAKESH 1310   32     300/  5/  6   N/A
KENOSHA   LAKESH 1400   30     270/ 13/ 16 1003.0R
$$

TC  - TEMPERATURE IN CELSIUS
VSB - VISIBILITY IN STATUTE MILES
WCI - WIND CHILL INDEX
HX  - HEAT INDEX





USA.gov is the U.S. government's official web portal to all federal, state and local government web resources and services.